• En España
  • Lista de países
  • Para 7 días
  • Temperatura del agua
  • Mapa Satelital
  • El tiempo en el mapa
  • Informadores
  • user-avatar
    Iniciar sesión

    Tiempo cada hora Rechytsa

    Hoy, 16 Octubre, Martes

    Tiempo Temperatura Precipitaciones Viento Presión Humedad
    00:00 +11°C° 0 mm 1 mps 760 mmHg 61%
    01:00 +11°C° 0 mm 1 mps 760 mmHg 63%
    02:00 +11°C° 0 mm 1 mps 760 mmHg 65%
    03:00 +10°C° 0 mm 1 mps 760 mmHg 67%
    04:00 +10°C° 0 mm 1 mps 759 mmHg 70%
    05:00 +10°C° 0 mm 1 mps 759 mmHg 72%
    06:00 +11°C° 0 mm 1 mps 759 mmHg 72%
    07:00 +11°C° 0 mm 1 mps 759 mmHg 71%
    08:00 +12°C° 0 mm 1 mps 760 mmHg 70%
    09:00 +14°C° 0 mm 1 mps 760 mmHg 64%
    10:00 +16°C° 0 mm 2 mps 759 mmHg 58%
    11:00 +18°C° 0 mm 2 mps 759 mmHg 52%
    12:00 +19°C° 0 mm 2 mps 759 mmHg 50%
    13:00 +20°C° 0 mm 2 mps 759 mmHg 48%
    14:00 +21°C° 0 mm 2 mps 759 mmHg 46%
    15:00 +20°C° 0 mm 2 mps 759 mmHg 51%
    16:00 +18°C° 0 mm 2 mps 758 mmHg 57%
    17:00 +18°C° 0 mm 1 mps 758 mmHg 62%
    18:00 +16°C° 0 mm 1 mps 758 mmHg 65%
    19:00 +15°C° 0 mm 2 mps 758 mmHg 68%
    20:00 +15°C° 0 mm 2 mps 758 mmHg 71%
    21:00 +14°C° 0 mm 2 mps 758 mmHg 73%
    22:00 +14°C° 0 mm 2 mps 758 mmHg 75%
    23:00 +14°C° 0 mm 2 mps 758 mmHg 77%

    Mañana, 17 Octubre, Miércoles

    Tiempo Temperatura Precipitaciones Viento Presión Humedad
    00:00 +13°C° 0 mm 1 mps 758 mmHg 79%
    01:00 +13°C° 0 mm 1 mps 758 mmHg 81%
    02:00 +13°C° 0 mm 1 mps 759 mmHg 83%
    03:00 +13°C° 0 mm 1 mps 758 mmHg 84%
    04:00 +12°C° 0 mm 1 mps 758 mmHg 85%
    05:00 +12°C° 0 mm 1 mps 758 mmHg 86%
    06:00 +13°C° 0 mm 1 mps 758 mmHg 84%
    07:00 +13°C° 0 mm 1 mps 758 mmHg 81%
    08:00 +14°C° 0 mm 1 mps 759 mmHg 79%
    09:00 +16°C° 0 mm 1 mps 759 mmHg 71%
    10:00 +19°C° 0 mm 1 mps 759 mmHg 63%
    11:00 +21°C° 0 mm 1 mps 759 mmHg 56%
    12:00 +21°C° 0 mm 1 mps 758 mmHg 53%
    13:00 +22°C° 0 mm 1 mps 758 mmHg 50%
    14:00 +23°C° 0 mm 1 mps 758 mmHg 47%
    15:00 +22°C° 0 mm 1 mps 758 mmHg 53%
    16:00 +20°C° 0 mm 1 mps 757 mmHg 58%
    17:00 +18°C° 0 mm 1 mps 757 mmHg 64%
    18:00 +18°C° 0 mm 1 mps 757 mmHg 67%
    19:00 +16°C° 0 mm 1 mps 757 mmHg 70%
    20:00 +15°C° 0 mm 1 mps 758 mmHg 73%
    21:00 +15°C° 0 mm 1 mps 758 mmHg 74%
    22:00 +15°C° 0 mm 1 mps 758 mmHg 76%
    23:00 +14°C° 0 mm 1 mps 758 mmHg 78%

    Pasado mañana, 18 Octubre, Jueves

    Tiempo Temperatura Precipitaciones Viento Presión Humedad
    00:00 +14°C° 0 mm 1 mps 758 mmHg 80%
    01:00 +14°C° 0 mm 1 mps 758 mmHg 81%
    02:00 +13°C° 0 mm 1 mps 758 mmHg 83%
    03:00 +13°C° 0 mm 1 mps 757 mmHg 84%
    04:00 +13°C° 0 mm 1 mps 757 mmHg 85%
    05:00 +12°C° 0 mm 1 mps 757 mmHg 86%
    06:00 +13°C° 0 mm 1 mps 757 mmHg 84%
    07:00 +13°C° 0 mm 1 mps 757 mmHg 82%
    08:00 +14°C° 0 mm 1 mps 757 mmHg 81%
    09:00 +16°C° 0 mm 2 mps 757 mmHg 73%
    10:00 +18°C° 0 mm 2 mps 757 mmHg 65%
    11:00 +20°C° 0 mm 2 mps 757 mmHg 58%
    12:00 +20°C° 0 mm 2 mps 756 mmHg 55%
    13:00 +21°C° 0 mm 2 mps 756 mmHg 52%
    14:00 +23°C° 0 mm 2 mps 756 mmHg 50%
    15:00 +20°C° 0 mm 2 mps 755 mmHg 55%
    16:00 +19°C° 0 mm 2 mps 755 mmHg 61%
    17:00 +18°C° 0 mm 1 mps 755 mmHg 66%
    18:00 +16°C° 0 mm 1 mps 755 mmHg 69%
    19:00 +15°C° 0 mm 1 mps 755 mmHg 72%
    20:00 +15°C° 0 mm 1 mps 755 mmHg 75%
    21:00 +14°C° 0 mm 1 mps 755 mmHg 77%
    22:00 +14°C° 0 mm 1 mps 755 mmHg 78%
    23:00 +13°C° 0 mm 1 mps 754 mmHg 80%

    19 Octubre, Viernes

    Tiempo Temperatura Precipitaciones Viento Presión Humedad
    00:00 +13°C° 0 mm 1 mps 754 mmHg 82%
    01:00 +12°C° 0 mm 1 mps 754 mmHg 83%
    02:00 +12°C° 0 mm 1 mps 754 mmHg 85%
    03:00 +11°C° 0 mm 1 mps 754 mmHg 86%
    04:00 +11°C° 0 mm 1 mps 754 mmHg 86%
    05:00 +11°C° 0 mm 1 mps 753 mmHg 87%
    06:00 +11°C° 0 mm 1 mps 753 mmHg 85%
    07:00 +12°C° 0 mm 1 mps 753 mmHg 83%
    08:00 +12°C° 0 mm 1 mps 753 mmHg 80%
    09:00 +14°C° 0 mm 1 mps 753 mmHg 72%
    10:00 +16°C° 0 mm 1 mps 753 mmHg 64%
    11:00 +19°C° 0 mm 1 mps 753 mmHg 56%
    12:00 +19°C° 0 mm 1 mps 753 mmHg 53%
    13:00 +20°C° 0 mm 1 mps 753 mmHg 50%
    14:00 +21°C° 0 mm 1 mps 752 mmHg 48%
    15:00 +19°C° 0 mm 1 mps 752 mmHg 53%
    16:00 +18°C° 0 mm 1 mps 752 mmHg 58%
    17:00 +15°C° 0 mm 1 mps 752 mmHg 63%
    18:00 +14°C° 0 mm 1 mps 752 mmHg 67%
    19:00 +14°C° 0 mm 1 mps 752 mmHg 70%
    20:00 +13°C° 0 mm 1 mps 752 mmHg 73%
    21:00 +13°C° 0 mm 1 mps 752 mmHg 76%
    22:00 +12°C° 0 mm 1 mps 752 mmHg 78%
    23:00 +12°C° 0 mm 1 mps 752 mmHg 81%

    20 Octubre, Sábado

    Tiempo Temperatura Precipitaciones Viento Presión Humedad
    00:00 +12°C° 0 mm 1 mps 752 mmHg 83%
    01:00 +11°C° 0 mm 1 mps 752 mmHg 86%
    02:00 +11°C° 0 mm 1 mps 752 mmHg 88%
    03:00 +11°C° 0 mm 1 mps 752 mmHg 90%
    04:00 +10°C° 0 mm 1 mps 752 mmHg 91%
    05:00 +9°C° 0 mm 2 mps 752 mmHg 93%
    06:00 +9°C° 0 mm 2 mps 752 mmHg 92%
    07:00 +10°C° 0 mm 2 mps 752 mmHg 91%
    08:00 +10°C° 0 mm 2 mps 753 mmHg 90%
    09:00 +12°C° 0 mm 2 mps 753 mmHg 85%
    10:00 +14°C° 0 mm 2 mps 753 mmHg 79%
    11:00 +14°C° 0 mm 3 mps 753 mmHg 74%
    12:00 +14°C° 0 mm 3 mps 753 mmHg 72%
    13:00 +16°C° 0 mm 3 mps 753 mmHg 70%
    14:00 +16°C° 0 mm 3 mps 752 mmHg 68%
    15:00 +14°C° 0 mm 3 mps 752 mmHg 73%
    16:00 +13°C° 0 mm 3 mps 753 mmHg 77%
    17:00 +12°C° 0 mm 3 mps 753 mmHg 81%
    18:00 +11°C° 0 mm 3 mps 753 mmHg 83%
    19:00 +11°C° 0 mm 3 mps 753 mmHg 85%
    20:00 +10°C° 0 mm 3 mps 753 mmHg 87%
    21:00 +10°C° 0 mm 3 mps 753 mmHg 86%
    22:00 +10°C° 0 mm 3 mps 753 mmHg 85%
    23:00 +9°C° 0 mm 3 mps 753 mmHg 84%

    21 Octubre, Domingo

    Tiempo Temperatura Precipitaciones Viento Presión Humedad
    00:00 +9°C° 0 mm 3 mps 753 mmHg 83%
    01:00 +8°C° 0 mm 3 mps 753 mmHg 81%
    02:00 +7°C° 0 mm 3 mps 753 mmHg 80%
    03:00 +5°C° 0 mm 3 mps 753 mmHg 80%
    04:00 +5°C° 0 mm 3 mps 754 mmHg 80%
    05:00 +4°C° 0 mm 3 mps 754 mmHg 80%
    06:00 +4°C° 0 mm 3 mps 754 mmHg 79%
    07:00 +4°C° 0 mm 3 mps 754 mmHg 77%
    08:00 +4°C° 0 mm 4 mps 754 mmHg 75%
    09:00 +6°C° 0 mm 4 mps 754 mmHg 69%
    10:00 +7°C° 0 mm 4 mps 755 mmHg 63%
    11:00 +8°C° 0 mm 4 mps 755 mmHg 58%
    12:00 +10°C° 0 mm 4 mps 755 mmHg 58%
    13:00 +10°C° 0 mm 4 mps 754 mmHg 58%
    14:00 +11°C° 0 mm 4 mps 754 mmHg 58%
    15:00 +10°C° 0 mm 4 mps 754 mmHg 59%
    16:00 +10°C° 0 mm 4 mps 754 mmHg 61%
    17:00 +9°C° 0 mm 3 mps 755 mmHg 63%
    18:00 +9°C° 0 mm 3 mps 755 mmHg 65%
    19:00 +9°C° 0 mm 3 mps 755 mmHg 68%
    20:00 +8°C° 0 mm 2 mps 755 mmHg 71%
    21:00 +8°C° 0 mm 2 mps 755 mmHg 75%
    22:00 +8°C° 0 mm 2 mps 755 mmHg 78%
    23:00 +7°C° 0 mm 2 mps 755 mmHg 81%
    Mostrar más